This demonstration page uses our WeatherBlox Daily Observations layout. Learn more.

Left ArrowRight Arrow

38.83388, -104.82136

Hourly Observations for March 12, 2021

Temp ( °F °C ) Dew Point ( °F °C ) Humidity (%) Winds ( mph kmh ) Pressure ( in mb ) Visibility ( mi km ) Precip ( " mm )
12:58 am 00:58 Cloudy 30 -0.9 22 -5.6 71 71 Calm 29.85 1011 10 16 0.00 0.00
1:23 am 01:23 Partly Cloudy 28 -2 23 -5 80 80 N 3 6 29.86 1011 10 16 0.00 0.00
1:58 am 01:58 Clear 28 -2 22 -5.3 78 78 Calm 29.87 1012 10 16 0.00 0.00
2:18 am 02:18 Mostly Cloudy 28 -2 23 -5 80 80 NW 6 9 29.86 1011 10 16 0.00 0.00
2:58 am 02:58 Mostly Cloudy 28 -2.3 22 -5.4 80 80 Calm 29.86 1011 10 16 0.00 0.00
3:43 am 03:43 Cloudy 28 -2 23 -5 80 80 Calm 29.86 1011 10 16 0.00 0.00
3:58 am 03:58 Cloudy 28 -2.3 22 -5.4 80 80 Calm 29.86 1011 10 16 0.00 0.00
4:58 am 04:58 Cloudy 27 -2.8 23 -5 85 85 NNE 3 6 29.88 1012 10 16 0.00 0.00
5:13 am 05:13 Mostly Cloudy 27 -3 23 -5 86 86 Calm 29.88 1012 10 16 0.00 0.00
5:43 am 05:43 Cloudy 28 -2 25 -4 86 86 W 7 11 29.88 1012 10 16 0.00 0.00
5:58 am 05:58 Cloudy 28 -2.2 23 -4.9 82 82 Calm 29.88 1012 10 16 0.00 0.00
6:58 am 06:58 Cloudy 28 -2.2 25 -4 88 88 NNE 5 7 29.91 1013 10 16 0.00 0.00
7:58 am 07:58 Mostly Cloudy with Mist and Fog 29 -1.8 27 -3 92 92 E 5 7 29.93 1013 1 2 0.00 0.00
8:03 am 08:03 Mostly Cloudy with Mist and Fog 28 -2 27 -3 93 93 Calm 29.93 1013 5 8 0.00 0.00
8:58 am 08:58 Mostly Cloudy with Freezing Fog 27 -2.6 27 -2.6 100 100 Calm 29.96 1015 1 2 0.00 0.00
9:58 am 09:58 Mostly Cloudy with Freezing Fog 28 -2.3 28 -2.1 100 100 Calm 29.95 1014 1 2 0.00 0.00
10:58 am 10:58 Mostly Cloudy with Freezing Fog 28 -2 28 -2.1 99 99 E 3 6 29.96 1015 0 0 0.00 0.00
11:58 am 11:58 Mostly Cloudy with Freezing Fog 28 -2.1 28 -2.1 100 100 SE 5 7 29.95 1014 0 0 0.00 0.00
12:58 pm 12:58 Mostly Cloudy with Mist and Fog 29 -1.8 29 -1.8 100 100 Calm 29.93 1014 2 3 0.00 0.00
1:13 pm 13:13 Mostly Cloudy with Mist and Fog 28 -2 28 -2 100 100 NNE 5 7 29.94 1014 7 11 0.00 0.00
1:28 pm 13:28 Mostly Cloudy with Mist and Fog 28 -2 28 -2 100 100 NE 3 6 29.94 1014 1 2 0.00 0.00
1:58 pm 13:58 Mostly Cloudy with Freezing Fog 29 -1.5 29 -1.6 99 99 ENE 5 7 29.91 1013 3 5 0.00 0.00
2:13 pm 14:13 Mostly Cloudy 30 -1 30 -1 100 100 Calm 29.91 1013 7 11 0.00 0.00
2:48 pm 14:48 Cloudy 30 -1 30 -1 100 100 Calm 29.92 1013 10 16 0.00 0.00
2:58 pm 14:58 Cloudy 30 -1.2 30 -1.2 100 100 Calm 29.92 1013 10 16 0.00 0.00
3:13 pm 15:13 Cloudy 32 0 30 -1 93 93 Calm 29.90 1013 10 16 0.00 0.00
3:58 pm 15:58 Mostly Cloudy 32 -0.1 28 -2 87 87 Calm 29.91 1013 10 16 0.00 0.00
4:33 pm 16:33 Cloudy 32 0 28 -2 87 87 ESE 5 7 29.90 1013 10 16 0.00 0.00
4:38 pm 16:38 Cloudy 32 0 28 -2 87 87 SE 5 7 29.90 1013 10 16 0.00 0.00
4:58 pm 16:58 Cloudy 31 -0.3 28 -2.3 87 87 SSE 3 6 29.90 1013 10 16 0.00 0.00
5:18 pm 17:18 Cloudy 32 0 28 -2 87 87 SE 9 15 29.91 1013 10 16 0.00 0.00
5:23 pm 17:23 Mostly Cloudy 32 0 28 -2 87 87 SE 7 11 29.91 1013 10 16 0.00 0.00
5:58 pm 17:58 Mostly Cloudy with Mist and Fog 31 -0.8 30 -1.1 98 98 SSE 6 9 29.93 1014 4 6 0.00 0.00
6:13 pm 18:13 Mostly Cloudy with Freezing Fog 30 -1 30 -1 100 100 SE 8 13 29.94 1014 0 0 0.00 0.00
6:58 pm 18:58 Mostly Cloudy with Freezing Fog 30 -1.1 30 -1.2 99 99 SSE 9 15 29.95 1014 N/A 0.00 0.00
7:58 pm 19:58 Mostly Cloudy with Freezing Fog 30 -1.2 30 -1.3 99 99 SSE 5 7 29.92 1013 N/A 0.01 0.25
8:58 pm 20:58 Mostly Cloudy with Freezing Fog 30 -1.2 30 -1.2 100 100 SSE 8 13 29.95 1014 N/A 0.01 0.25
9:58 pm 21:58 Mostly Cloudy with Freezing Fog 30 -1.3 30 -1.3 100 100 SE 6 9 29.94 1014 N/A 0.00 0.00
10:58 pm 22:58 Mostly Cloudy with Freezing Fog 30 -1.3 30 -1.3 100 100 SE 7 11 29.92 1013 N/A 0.00 0.00
11:58 pm 23:58 Mostly Cloudy with Freezing Fog 30 -1.3 30 -1.3 100 100 SE 7 11 29.94 1014 N/A 0.01 0.25

Powered by AerisWeather